Home   Weather   Deggendorf   Past weeks

Flag for Germany Past Weather in Deggendorf, Bavaria, Germany — Yesterday and Last 2 Weeks

Now
28 °F

Clear.


Feels Like: 28 °F
Forecast: 15 / 31 °F
Wind: No wind

Location: Straubing

Current Time: Dec 4, 2016 at 5:33:24 pm

Latest Report: Dec 4, 2016 at 5:00 pm


Visibility: 5 mi

Pressure: 30.43 "Hg

Humidity: 96%

Dew Point: 27 °F

Location of DeggendorfLocation

Past Weather in Deggendorf — Graph

°F

Deggendorf Temperature Yesterday

Maximum temperature yesterday: 29 °F (at 12:00 am)
Minimum temperature yesterday: 22 °F (at 11:00 pm)
Average temperature yesterday: 26 °F

High & Low Weather Summary for the Past Weeks

 TemperatureHumidityPressure
High56 °F (Nov 21, 3:00 pm)100% (Nov 19, 11:00 pm)30.62 "Hg (Nov 19, 11:00 pm)
Low18 °F (Dec 4, 3:00 am)57% (Nov 28, 3:00 pm)29.72 "Hg (Nov 21, 2:00 pm)
Average37 °F89%30.16 "Hg
* Reported Nov 19 3:00 pm — Dec 4 3:00 pm, Deggendorf, Weather by CustomWeather, © 2016

Note: Actual official high and low records may vary slightly from our data, if they occured in-between our weather recording intervals... More about our weather records

Advertising

Deggendorf Weather History for the Previous 24 Hours

Scroll right to see more
 ConditionsComfort  
Time TempWeatherWind HumidityBarometerVisibility
3:00 pm
Sun, Dec 4
30 °FSunny.No wind91%30.41 "Hg9 mi
2:00 pm29 °FSunny.N/A90%30.42 "Hg7 mi
12:00 pm26 °FSunny.N/A91%30.44 "Hg9 mi
11:00 am25 °FSunny.N/A91%30.45 "Hg8 mi
9:00 am20 °FLow clouds.N/A96%30.45 "Hg1 mi
8:00 am19 °FLow clouds.N/A97%30.43 "Hg0 mi
6:00 am20 °FLow clouds.N/A98%30.42 "Hg0 mi
5:00 am19 °FLow clouds.N/A99%30.42 "Hg0 mi
3:00 am18 °FLow clouds.No wind96%30.42 "Hg0 mi
2:00 am20 °FLow clouds.No wind97%30.40 "Hg0 mi
12:00 am21 °FLow clouds.No wind99%30.39 "Hg0 mi
11:00 pm
Sat, Dec 3
22 °FLow clouds.No wind100%30.38 "Hg0 mi
9:00 pm24 °FLow clouds.No wind99%30.36 "Hg0 mi
8:00 pm25 °FLow clouds.1 mph99%30.36 "Hg0 mi
6:00 pm25 °FLow clouds.1 mph100%30.34 "Hg0 mi
5:00 pm26 °FLow clouds.1 mph100%30.33 "Hg0 mi
Weather by CustomWeather, © 2016

See weather overviewHow to use our weather pages